Regional Weather Roundup
Issued by NWS

Home | Current Version | Previous Version | Graphics & Text | Print | Product List | Glossary On
Versions: 1 2 3 4 5 6 7 8 9 10 11 12 13 14 15 16 17 18 19 20 21 22 23 24 25 26 27 28 29 30 31 32 33 34 35 36 37 38 39 40 41 42 43 44 45 46 47 48 49 50
000
ASUS43 KIND 021309
RWRIN

WEATHER ROUNDUP FOR INDIANA
NATIONAL WEATHER SERVICE INDIANAPOLIS IN
900 AM EDT TUE SEP 02 2014

NOTE: "FAIR" INDICATES FEW OR NO CLOUDS BELOW 12,000 FEET WITH NO
SIGNIFICANT WEATHER AND/OR OBSTRUCTIONS TO VISIBILITY.

* - STATION DOES NOT REPORT WEATHER SUCH AS PRECIPITATION OR FOG.

+ - STATION NOT QUALITY CONTROLLED BY THE NATIONAL WEATHER SERVICE.
    USE DATA WITH CAUTION...ESPECIALLY DEWPOINT AND RELATIVE
    HUMIDITY OBSERVATIONS.

INZ001>003-010>013-019-020-021400-
NORTHWEST INDIANA

CITY           SKY/WX    TMP DP  RH WIND       PRES   REMARKS
KNOX *+        CLOUDY    68  64  87 SW5       29.89S
LA PORTE +     CLOUDY    67  67 100 NW6       29.90S
MICHIGAN CITY+ PTSUNNY   68  66  94 SW3       29.88F
MONTICELLO +   CLOUDY    67  66  96 SW7       29.90S
RENSSELAER +   CLOUDY    70  68  94 SW8G16    29.91R
VALPARAISO     PTSUNNY   68  66  93 SW5       29.89F

$$

LMZ046-743>745-021400-
SOUTHERN LAKE MICHIGAN

STATION/POSITION TIME  TEMP WIND        PRES
                       AIR  DIR/SP/G
                 (UTC) (F)  (DEG/KT/KT) (MB)
MICHIGAN CITY    1300   69  190/  5/  6   N/A

$$

INZ004-005-014>016-021>024-021400-
NORTH CENTRAL INDIANA

CITY           SKY/WX    TMP DP  RH WIND       PRES   REMARKS
ELKHART        CLOUDY    70  66  88 SW6       29.88F
GOSHEN         CLOUDY    70  65  84 SW8       29.89F
LOGANSPORT +   CLOUDY    68  64  88 SW7       29.91S
PERU/GRISSOM   CLOUDY    68  68 100 SW8       29.91F
ROCHESTER +    CLOUDY    70  68  94 SW8       29.90F
SOUTH BEND     CLOUDY    70  66  87 SW7       29.89S
WARSAW +       CLOUDY    68  64  88 W6        29.90S

$$

INZ006>009-017-018-025>027-021400-
NORTHEAST INDIANA

CITY           SKY/WX    TMP DP  RH WIND       PRES   REMARKS
ANGOLA *+      CLOUDY    70  63  78 SW6       29.89F
AUBURN +       CLOUDY    68  63  83 SW3       29.90F
FORT WAYNE     CLOUDY    68  66  93 SW8       29.91S
HUNTINGTON +   CLOUDY    67  66  96 SW5       29.90F

$$

INZ028-029-035-036-043>045-051>053-021400-
WEST CENTRAL INDIANA

CITY           SKY/WX    TMP DP  RH WIND       PRES   REMARKS
GREENCASTLE +  CLOUDY    64  64 100 S3        29.95R
LAFAYETTE      CLOUDY    67  66  97 SW6       29.92R
TERRE HAUTE    CLOUDY    68  65  90 SE6       29.93R

$$

INZ030>032-037>040-046>048-054>057-064-065-021400-
CENTRAL INDIANA

CITY           SKY/WX    TMP DP  RH WIND       PRES   REMARKS
ANDERSON       MOSUNNY   66  66 100 SW9       29.95
CP ATTERBURY + DRIZZLE   66  64  94 S8        30.00R
COLUMBUS       LGT RAIN  66  66 100 S7        29.95R
FRANKFORT +    CLOUDY   N/A N/A N/A SW6       29.93S
INDIANAPOLIS   CLOUDY    66  65  96 SW7       29.93R
-EAGLE CREEK   CLOUDY    67  64  90 CALM      29.92S
KOKOMO *+      CLOUDY    66  64  94 SW10      29.92R
MARION +       CLOUDY    65  65  98 SW7       29.93S
MT COMFORT *+  CLOUDY    66 N/A N/A CALM      29.93F
SHELBYVILLE    CLOUDY    68  65  90 S9        29.93R
ZIONSVILLE +   CLOUDY    67  63  88 W3        29.94S

$$

INZ033-034-041-042-049-050-058-059-021400-
EAST CENTRAL INDIANA

CITY           SKY/WX    TMP DP  RH WIND       PRES   REMARKS
MUNCIE         CLOUDY    67  63  87 SW6       29.92S

$$

INZ060-061-067>069-081>083-085>088-021400-
SOUTHWEST INDIANA

CITY           SKY/WX    TMP DP  RH WIND       PRES   REMARKS
EVANSVILLE     CLOUDY    70  68  93 VRB5      29.98R
WASHINGTON +   CLOUDY    67  67 100 S9        29.95S

$$

INZ062-063-066-070>080-084-089>092-021400-
SOUTH CENTRAL AND SOUTHEAST INDIANA

CITY           SKY/WX    TMP DP  RH WIND       PRES   REMARKS
BEDFORD +      CLOUDY    66  64  94 SE6       29.93
BLOOMINGTON    LGT RAIN  67  65  93 S5        29.96R
NORTH VERNON + LGT RAIN  66  66 100 SE7       29.97F

$$



USA.gov is the U.S. government's official web portal to all federal, state and local government web resources and services.